QPF
0.00 0.00 0.00 0.00 0.00 0.00 0.00 0.00 0.00 0.00 0.00 0.00 0.00 0.00 0.00 0.00 0.00 0.00 0.00 0.00 0.00 0.00 0.00 0.00 0.00 0.00 0.00 0.00 0.00 0.00 0.00 0.00 0.00 0.00 0.00 0.00 0.00 0.00 0.00 0.00 0.00 0.00 0.00 0.00 0.00 0.00 0.00 0.00 0.00 0.00 0.00 0.00
0.00 0.00 0.00 0.00 0.00 0.00 0.00 0.00 0.00 0.00 0.00 0.00 0.00 0.00 0.00 0.00 0.00 0.00 0.00 0.00 0.00 0.00 0.00 0.00 0.00 0.00 0.00 0.00 0.00 0.00 0.00 0.00 0.00 0.00 0.00 0.00 0.00 0.00 0.00 0.00 0.00 0.00 0.00 0.00 0.00 0.00 0.00 0.00 0.00 0.00 0.00 0.00
0.00 0.00 0.00 0.00 0.00 0.00 0.00 0.00 0.00 0.00 0.00 0.00 0.00 0.00 0.00 0.00 0.00 0.00 0.00 0.00 0.00 0.00 0.00 0.00 0.00 0.00 0.00 0.00 0.00 0.00 0.00 0.00 0.00 0.00 0.00 0.00 0.00 0.00 0.00 0.00 0.00 0.00 0.00 0.00 0.00 0.00 0.00 0.00 0.00 0.00 0.00 0.00
0.00 0.00 0.00 0.00 0.00 0.00 0.00 0.00 0.00 0.00 0.00 0.00 0.00 0.00 0.00 0.00 0.00 0.00 0.00 0.00 0.00 0.00 0.00 0.00 0.00 0.00 0.00 0.00 0.00 0.00 0.00 0.00 0.00 0.00 0.00 0.00 0.00 0.00 0.00 0.00 0.00 0.00 0.00 0.00 0.00 0.00 0.00 0.00 0.00 0.00 0.00 0.00
0.00 0.00 0.00 0.00 0.00 0.00 0.00 0.00 0.00 0.00 0.00 0.00 0.00 0.00 0.00 0.00 0.00 0.00 0.00 0.00 0.00 0.00 0.00 0.00 0.00 0.00 0.00 0.00 0.00 0.00 0.00 0.00 0.00 0.00 0.00 0.00 0.00 0.00 0.00 0.00 0.00 0.00 0.00 0.00 0.00 0.00 0.00 0.00 0.00 0.00 0.00 0.00
0.00 0.00 0.00 0.00 0.00 0.00 0.00 0.00 0.00 0.00 0.00 0.00 0.00 0.00 0.00 0.00 0.00 0.00 0.00 0.00 0.00 0.00 0.00 0.00 0.00 0.00 0.00 0.00 0.00 0.00 0.00 0.00 0.00 0.00 0.00 0.00 0.00 0.00 0.00 0.00 0.00 0.00 0.00 0.00 0.00 0.00 0.00 0.00 0.00 0.00 0.00 0.00
0.00 0.00 0.00 0.00 0.00 0.00 0.00 0.00 0.00 0.00 0.00 0.00 0.00 0.00 0.00 0.00 0.00 0.00 0.00 0.00 0.00 0.00 0.00 0.00 0.00 0.00 0.00 0.00 0.00 0.00 0.00 0.00 0.00 0.00 0.00 0.00 0.00 0.00 0.00 0.00 0.00 0.00 0.00 0.00 0.00 0.00 0.00 0.00 0.00 0.00 0.00 0.00
0.00 0.00 0.00 0.00 0.00 0.00 0.00 0.00 0.00 0.00 0.00 0.00 0.00 0.00 0.00 0.00 0.00 0.00 0.00 0.00 0.00 0.00 0.00 0.00 0.00 0.00 0.00 0.00 0.00 0.00 0.00 0.00 0.00 0.00 0.00 0.00 0.00 0.00 0.00 0.00 0.00 0.00 0.00 0.00 0.00 0.00 0.00 0.00 0.00 0.00 0.00 0.00
0.00 0.00 0.00 0.00 0.00 0.00 0.00 0.00 0.00 0.00 0.00 0.00 0.00 0.00 0.00 0.00 0.00 0.00 0.00 0.00 0.00 0.00 0.00 0.00 0.00 0.00 0.00 0.00 0.00 0.00 0.00 0.00 0.00 0.00 0.00 0.00 0.00 0.00 0.00 0.00 0.00 0.00 0.00 0.00 0.00 0.00 0.00 0.00 0.00 0.00 0.00 0.00
0.00 0.00 0.00 0.00 0.00 0.00 0.00 0.00 0.00 0.00 0.00 0.00 0.00 0.00 0.00 0.00 0.00 0.00 0.00 0.00 0.00 0.00 0.00 0.00 0.00 0.00 0.00 0.00 0.00 0.00 0.00 0.00 0.00 0.00 0.00 0.00 0.00 0.00 0.00 0.00 0.00 0.00 0.00 0.00 0.00 0.00 0.00 0.00 0.00 0.00 0.00 0.00
0.00 0.00 0.00 0.00 0.00 0.00 0.00 0.00 0.00 0.00 0.00 0.00 0.00 0.00 0.00 0.00 0.00 0.00 0.00 0.00 0.00 0.00 0.00 0.00 0.00 0.00 0.00 0.00 0.00 0.00 0.00 0.00 0.00 0.00 0.00 0.00 0.00 0.00 0.00 0.00 0.00 0.00 0.00 0.00 0.00 0.00 0.00 0.00 0.00 0.00 0.00 0.00
0.00 0.00 0.00 0.00 0.00 0.00 0.00 0.00 0.00 0.00 0.00 0.00 0.00 0.00 0.00 0.00 0.00 0.00 0.00 0.00 0.00 0.00 0.00 0.00 0.00 0.00 0.00 0.00 0.00 0.00 0.00 0.00 0.00 0.00 0.00 0.00 0.00 0.00 0.00 0.00 0.00 0.00 0.00 0.00 0.00 0.00 0.00 0.00 0.00 0.00 0.00 0.00
0.00 0.00 0.00 0.00 0.00 0.00 0.00 0.00 0.00 0.00 0.00 0.00 0.00 0.00 0.00 0.00 0.00 0.00 0.00 0.00 0.00 0.00 0.00 0.00 0.00 0.00 0.00 0.00 0.00 0.00 0.00 0.00 0.00 0.00 0.00 0.00 0.00 0.00 0.00 0.00 0.00 0.00 0.00 0.00 0.00 0.00 0.00 0.00 0.00 0.00 0.00 0.00
0.00 0.00 0.00 0.00 0.00 0.00 0.00 0.00 0.00 0.00 0.00 0.00 0.00 0.00 0.00 0.00 0.00 0.00 0.00 0.00 0.00 0.00 0.00 0.00 0.00 0.00 0.00 0.00 0.00 0.00 0.00 0.00 0.00 0.00 0.00 0.00 0.00 0.00 0.00 0.00 0.00 0.00 0.00 0.00 0.00 0.00 0.00 0.00 0.00 0.00 0.00 0.00
0.00 0.00 0.00 0.00 0.00 0.00 0.00 0.00 0.00 0.00 0.00 0.00 0.00 0.00 0.00 0.00 0.00 0.00 0.00 0.00 0.00 0.00 0.00 0.00 0.00 0.00 0.00 0.00 0.00 0.00 0.00 0.00 0.00 0.00 0.00 0.00 0.00 0.00 0.00 0.00 0.00 0.00 0.00 0.00 0.00 0.00 0.00 0.00 0.00 0.00 0.00 0.00
0.00 0.00 0.00 0.00 0.00 0.00 0.00 0.00 0.00 0.00 0.00 0.00 0.00 0.00 0.00 0.00 0.00 0.00 0.00 0.00 0.00 0.00 0.00 0.00 0.00 0.00 0.00 0.00 0.00 0.00 0.00 0.00 0.00 0.00 0.00 0.00 0.00 0.00 0.00 0.00 0.00 0.00 0.00 0.00 0.00 0.00 0.00 0.00 0.00 0.00 0.00 0.00
0.00 0.00 0.00 0.00 0.00 0.00 0.00 0.00 0.00 0.00 0.00 0.00 0.00 0.00 0.00 0.00 0.00 0.00 0.00 0.00 0.00 0.00 0.00 0.00 0.00 0.00 0.00 0.00 0.00 0.00 0.00 0.00 0.00 0.00 0.00 0.00 0.00 0.00 0.00 0.00 0.00 0.00 0.00 0.00 0.00 0.00 0.00 0.00 0.00 0.00 0.00 0.00
0.00 0.00 0.00 0.00 0.00 0.00 0.00 0.00 0.00 0.00 0.00 0.00 0.00 0.00 0.00 0.00 0.00 0.00 0.00 0.00 0.00 0.00 0.00 0.00 0.00 0.00 0.00 0.00 0.00 0.00 0.00 0.00 0.00 0.00 0.00 0.00 0.00 0.00 0.00 0.00 0.00 0.00 0.00 0.00 0.00 0.00 0.00 0.00 0.00 0.00 0.00 0.00
0.00 0.00 0.00 0.00 0.00 0.00 0.00 0.00 0.00 0.00 0.00 0.00 0.00 0.00 0.00 0.00 0.00 0.00 0.00 0.00 0.00 0.00 0.00 0.00 0.00 0.00 0.00 0.00 0.00 0.00 0.00 0.00 0.00 0.00 0.00 0.00 0.00 0.00 0.00 0.00 0.00 0.00 0.00 0.00 0.00 0.00 0.00 0.00 0.00 0.00 0.00 0.00
0.00 0.00 0.00 0.00 0.00 0.00 0.00 0.00 0.00 0.00 0.00 0.00 0.00 0.00 0.00 0.00 0.00 0.00 0.00 0.00 0.00 0.00 0.00 0.00 0.00 0.00 0.00 0.00 0.00 0.00 0.00 0.00 0.00 0.00 0.00 0.00 0.00 0.00 0.00 0.00 0.00 0.00 0.00 0.00 0.00 0.00 0.00 0.00 0.00 0.00 0.00 0.00
0.00 0.00 0.00 0.00 0.00 0.00 0.00 0.00 0.00 0.00 0.00 0.00 0.00 0.00 0.00 0.00 0.00 0.00 0.00 0.00 0.00 0.00 0.00 0.00 0.00 0.00 0.00 0.00 0.00 0.00 0.00 0.00 0.00 0.00 0.00 0.00 0.00 0.00 0.00 0.00 0.00 0.00 0.00 0.00 0.00 0.00 0.00 0.00 0.00 0.00 0.00 0.00
0.00 0.00 0.00 0.00 0.00 0.00 0.00 0.00 0.00 0.00 0.00 0.00 0.00 0.00 0.00 0.00 0.00 0.00 0.00 0.00 0.00 0.00 0.00 0.00 0.00 0.00 0.00 0.00 0.00 0.00 0.00 0.00 0.00 0.00 0.00 0.00 0.00 0.00 0.00 0.00 0.00 0.00 0.00 0.00 0.00 0.00 0.00 0.00 0.00 0.00 0.00 0.00
0.00 0.00 0.00 0.00 0.00 0.00 0.00 0.00 0.00 0.00 0.00 0.00 0.00 0.00 0.00 0.00 0.00 0.00 0.00 0.00 0.00 0.00 0.00 0.00 0.00 0.00 0.00 0.00 0.00 0.00 0.00 0.00 0.00 0.00 0.00 0.00 0.00 0.00 0.00 0.00 0.00 0.00 0.00 0.00 0.00 0.00 0.00 0.00 0.00 0.00 0.00 0.00
0.00 0.00 0.00 0.00 0.00 0.00 0.00 0.00 0.00 0.00 0.00 0.00 0.00 0.00 0.00 0.00 0.00 0.00 0.00 0.00 0.00 0.00 0.00 0.00 0.00 0.00 0.00 0.00 0.00 0.00 0.00 0.00 0.00 0.00 0.00 0.00 0.00 0.00 0.00 0.00 0.00 0.00 0.00 0.00 0.00 0.00 0.00 0.00 0.00 0.00 0.00 0.00
0.00 0.00 0.00 0.00 0.00 0.00 0.00 0.00 0.00 0.00 0.00 0.00 0.00 0.00 0.00 0.00 0.00 0.00 0.00 0.00 0.00 0.00 0.00 0.00 0.00 0.00 0.00 0.00 0.00 0.00 0.00 0.00 0.00 0.00 0.00 0.00 0.00 0.00 0.00 0.00 0.00 0.00 0.00 0.00 0.00 0.00 0.00 0.00 0.00 0.00 0.00 0.00
0.00 0.00 0.00 0.00 0.00 0.00 0.00 0.00 0.00 0.00 0.00 0.00 0.00 0.00 0.00 0.00 0.00 0.00 0.00 0.00 0.00 0.00 0.00 0.00 0.00 0.00 0.00 0.00 0.00 0.00 0.00 0.00 0.00 0.00 0.00 0.00 0.00 0.00 0.00 0.00 0.00 0.00 0.00 0.00 0.00 0.00 0.00 0.00 0.00 0.00 0.00 0.00
0.00 0.00 0.00 0.00 0.00 0.00 0.00 0.00 0.00 0.00 0.00 0.00 0.00 0.00 0.00 0.00 0.00 0.00 0.00 0.00 0.00 0.00 0.00 0.00 0.00 0.00 0.00 0.00 0.00 0.00 0.00 0.00 0.00 0.00 0.00 0.00 0.00 0.00 0.00 0.00 0.00 0.00 0.00 0.00 0.00 0.00 0.00 0.00 0.00 0.00 0.00 0.00
0.00 0.00 0.00 0.00 0.00 0.00 0.00 0.00 0.00 0.00 0.00 0.00 0.00 0.00 0.00 0.00 0.00 0.00 0.00 0.00 0.00 0.00 0.00 0.00 0.00 0.00 0.00 0.00 0.00 0.00 0.00 0.00 0.00 0.00 0.00 0.00 0.00 0.00 0.00 0.00 0.00 0.00 0.00 0.00 0.00 0.00 0.00 0.00 0.00 0.00 0.00 0.00
0.00 0.00 0.00 0.00 0.00 0.00 0.00 0.00 0.00 0.00 0.00 0.00 0.00 0.00 0.00 0.00 0.00 0.00 0.00 0.00 0.00 0.00 0.00 0.00 0.00 0.00 0.00 0.00 0.00 0.00 0.00 0.00 0.00 0.00 0.00 0.00 0.00 0.00 0.00 0.00 0.00 0.00 0.00 0.00 0.00 0.00 0.00 0.00 0.00 0.00 0.00 0.00
0.00 0.00 0.00 0.00 0.00 0.00 0.00 0.00 0.00 0.00 0.00 0.00 0.00 0.00 0.00 0.00 0.00 0.00 0.00 0.00 0.00 0.00 0.00 0.00 0.00 0.00 0.00 0.00 0.00 0.00 0.00 0.00 0.00 0.00 0.00 0.00 0.00 0.00 0.00 0.00 0.00 0.00 0.00 0.00 0.00 0.00 0.00 0.00 0.00 0.00 0.00 0.00
0.00 0.00 0.00 0.00 0.00 0.00 0.00 0.00 0.00 0.00 0.00 0.00 0.00 0.00 0.00 0.00 0.00 0.00 0.00 0.00 0.00 0.00 0.00 0.00 0.00 0.00 0.00 0.00 0.00 0.00 0.00 0.00 0.00 0.00 0.00 0.00 0.00 0.00 0.00 0.00 0.00 0.00 0.00 0.00 0.00 0.00 0.00 0.00 0.00 0.00 0.00 0.00
MSLP
1026.37 1026.33 1026.29 1026.25 1026.21 1026.13 1026.09 1026.05 1025.97 1025.89 1025.73 1025.65 1025.61 1025.49 1025.33 1025.25 1025.21 1025.17 1025.13 1025.05 1025.01 1024.89 1024.81 1024.65 1024.49 1024.29 1024.05 1023.85 1023.69 1023.49 1023.33 1023.21 1023.05 1022.89 1022.81 1022.73 1022.69 1022.65 1022.61 1022.61 1022.49 1022.33 1022.21 1022.13 1022.01 1021.93 1021.89 1021.77 1021.65 1021.57 1021.57 1021.65
1026.49 1026.45 1026.37 1026.33 1026.29 1026.21 1026.17 1026.13 1026.05 1025.93 1025.81 1025.73 1025.69 1025.61 1025.49 1025.41 1025.37 1025.37 1025.33 1025.25 1025.17 1025.09 1024.97 1024.81 1024.65 1024.41 1024.13 1023.89 1023.77 1023.65 1023.57 1023.45 1023.29 1023.17 1023.09 1023.01 1022.93 1022.89 1022.81 1022.77 1022.73 1022.57 1022.41 1022.29 1022.17 1022.13 1022.05 1021.97 1021.85 1021.73 1021.73 1021.73
1026.49 1026.41 1026.33 1026.29 1026.29 1026.25 1026.21 1026.17 1026.09 1025.97 1025.89 1025.85 1025.85 1025.73 1025.61 1025.57 1025.57 1025.61 1025.57 1025.41 1025.37 1025.25 1025.13 1024.93 1024.81 1024.53 1024.25 1024.09 1023.97 1023.89 1023.81 1023.69 1023.57 1023.45 1023.37 1023.25 1023.17 1023.13 1023.05 1022.97 1022.93 1022.81 1022.61 1022.45 1022.29 1022.21 1022.17 1022.05 1021.97 1021.89 1021.89 1021.81
1026.45 1026.37 1026.29 1026.29 1026.25 1026.21 1026.21 1026.17 1026.13 1026.05 1026.01 1026.01 1025.97 1025.89 1025.81 1025.77 1025.81 1025.85 1025.81 1025.61 1025.61 1025.45 1025.33 1025.09 1024.93 1024.69 1024.49 1024.29 1024.17 1024.09 1024.01 1023.89 1023.81 1023.69 1023.61 1023.53 1023.41 1023.37 1023.29 1023.21 1023.13 1023.01 1022.77 1022.61 1022.41 1022.33 1022.29 1022.21 1022.13 1022.13 1022.05 1021.93
1026.45 1026.37 1026.37 1026.33 1026.29 1026.29 1026.25 1026.25 1026.21 1026.17 1026.09 1026.09 1026.09 1026.05 1026.01 1025.97 1026.01 1026.05 1026.01 1025.89 1025.77 1025.65 1025.53 1025.25 1025.01 1024.85 1024.69 1024.53 1024.41 1024.29 1024.21 1024.13 1024.01 1023.93 1023.85 1023.77 1023.65 1023.61 1023.49 1023.41 1023.37 1023.25 1023.01 1022.77 1022.57 1022.49 1022.45 1022.37 1022.33 1022.25 1022.13 1022.01
1026.45 1026.45 1026.45 1026.45 1026.45 1026.45 1026.41 1026.37 1026.33 1026.29 1026.21 1026.21 1026.29 1026.25 1026.21 1026.17 1026.13 1026.17 1026.09 1026.01 1025.85 1025.81 1025.61 1025.41 1025.13 1025.01 1024.89 1024.73 1024.61 1024.49 1024.45 1024.37 1024.29 1024.21 1024.13 1024.01 1023.89 1023.81 1023.69 1023.61 1023.65 1023.49 1023.25 1023.01 1022.77 1022.69 1022.61 1022.53 1022.41 1022.29 1022.17 1022.09
1026.45 1026.53 1026.53 1026.53 1026.57 1026.61 1026.57 1026.49 1026.45 1026.33 1026.29 1026.33 1026.37 1026.37 1026.29 1026.25 1026.25 1026.25 1026.21 1026.13 1025.97 1025.89 1025.69 1025.53 1025.33 1025.21 1025.09 1024.97 1024.81 1024.77 1024.77 1024.69 1024.61 1024.45 1024.37 1024.25 1024.09 1024.01 1023.93 1023.89 1023.81 1023.61 1023.45 1023.25 1022.93 1022.81 1022.77 1022.61 1022.41 1022.29 1022.17 1022.09
1026.57 1026.61 1026.65 1026.65 1026.65 1026.65 1026.65 1026.57 1026.53 1026.41 1026.33 1026.37 1026.45 1026.49 1026.37 1026.37 1026.37 1026.37 1026.37 1026.25 1026.09 1026.01 1025.85 1025.69 1025.49 1025.29 1025.21 1025.17 1025.09 1025.05 1025.09 1024.97 1024.85 1024.73 1024.65 1024.49 1024.29 1024.25 1024.13 1024.01 1023.81 1023.65 1023.45 1023.25 1023.05 1022.89 1022.77 1022.61 1022.41 1022.25 1022.17 1022.13
1026.65 1026.73 1026.73 1026.73 1026.69 1026.69 1026.69 1026.57 1026.53 1026.45 1026.41 1026.45 1026.53 1026.53 1026.49 1026.45 1026.45 1026.49 1026.45 1026.41 1026.25 1026.13 1025.97 1025.77 1025.61 1025.49 1025.41 1025.37 1025.33 1025.21 1025.21 1025.09 1024.97 1024.85 1024.73 1024.61 1024.45 1024.33 1024.17 1024.01 1023.81 1023.69 1023.53 1023.33 1023.09 1022.89 1022.73 1022.57 1022.41 1022.29 1022.17 1022.13
1026.65 1026.73 1026.65 1026.65 1026.65 1026.65 1026.69 1026.57 1026.53 1026.49 1026.45 1026.45 1026.53 1026.53 1026.49 1026.45 1026.53 1026.53 1026.49 1026.41 1026.29 1026.17 1026.05 1025.85 1025.77 1025.65 1025.57 1025.45 1025.37 1025.33 1025.29 1025.17 1025.05 1024.97 1024.89 1024.77 1024.65 1024.45 1024.29 1024.09 1023.85 1023.69 1023.49 1023.25 1023.09 1022.81 1022.61 1022.49 1022.29 1022.17 1022.05 1022.01
1026.53 1026.49 1026.49 1026.49 1026.53 1026.49 1026.45 1026.45 1026.37 1026.33 1026.33 1026.41 1026.49 1026.49 1026.49 1026.49 1026.53 1026.53 1026.49 1026.45 1026.37 1026.17 1026.13 1025.93 1025.85 1025.73 1025.61 1025.53 1025.49 1025.45 1025.37 1025.29 1025.21 1025.09 1024.93 1024.81 1024.65 1024.45 1024.25 1023.97 1023.77 1023.53 1023.33 1023.13 1022.97 1022.73 1022.53 1022.37 1022.21 1022.05 1021.97 1021.93
1026.21 1026.25 1026.25 1026.21 1026.25 1026.29 1026.29 1026.33 1026.29 1026.29 1026.29 1026.37 1026.37 1026.41 1026.49 1026.49 1026.57 1026.61 1026.53 1026.49 1026.37 1026.21 1026.09 1025.97 1025.93 1025.85 1025.69 1025.69 1025.65 1025.61 1025.45 1025.37 1025.21 1025.01 1024.85 1024.73 1024.53 1024.33 1024.13 1023.93 1023.69 1023.49 1023.29 1023.13 1022.97 1022.77 1022.53 1022.37 1022.17 1022.05 1021.97 1021.93
1026.01 1026.13 1026.05 1026.09 1026.09 1026.13 1026.21 1026.17 1026.17 1026.17 1026.21 1026.21 1026.29 1026.33 1026.37 1026.41 1026.45 1026.53 1026.57 1026.49 1026.37 1026.29 1026.09 1026.09 1026.01 1025.93 1025.81 1025.77 1025.69 1025.61 1025.45 1025.33 1025.17 1024.93 1024.81 1024.69 1024.53 1024.41 1024.25 1024.05 1023.81 1023.61 1023.41 1023.29 1023.09 1022.93 1022.65 1022.45 1022.29 1022.09 1021.93 1021.85
1025.89 1025.93 1025.89 1025.93 1025.97 1026.01 1026.05 1025.97 1025.97 1026.01 1026.01 1026.13 1026.13 1026.13 1026.21 1026.29 1026.37 1026.45 1026.45 1026.41 1026.37 1026.25 1026.13 1026.13 1026.05 1025.93 1025.85 1025.73 1025.65 1025.49 1025.33 1025.25 1025.17 1024.97 1024.81 1024.69 1024.61 1024.53 1024.41 1024.25 1024.01 1023.85 1023.61 1023.37 1023.21 1023.01 1022.77 1022.53 1022.33 1022.13 1021.89 1021.65
1025.73 1025.77 1025.73 1025.77 1025.81 1025.85 1025.81 1025.77 1025.81 1025.81 1025.89 1026.01 1025.97 1025.97 1026.05 1026.13 1026.17 1026.25 1026.33 1026.33 1026.33 1026.25 1026.21 1026.13 1026.05 1025.89 1025.81 1025.61 1025.49 1025.41 1025.33 1025.25 1025.17 1025.09 1025.01 1024.89 1024.77 1024.65 1024.53 1024.37 1024.21 1024.01 1023.69 1023.37 1023.13 1022.93 1022.77 1022.49 1022.29 1022.05 1021.85 1021.61
1025.61 1025.61 1025.57 1025.57 1025.65 1025.61 1025.61 1025.65 1025.61 1025.65 1025.77 1025.81 1025.81 1025.89 1025.93 1025.93 1026.01 1026.13 1026.17 1026.17 1026.17 1026.13 1026.13 1026.05 1025.97 1025.85 1025.61 1025.45 1025.41 1025.37 1025.37 1025.29 1025.21 1025.13 1025.05 1024.97 1024.85 1024.73 1024.57 1024.33 1024.13 1023.89 1023.65 1023.29 1023.05 1022.85 1022.65 1022.45 1022.25 1022.01 1021.81 1021.61
1025.41 1025.45 1025.45 1025.45 1025.41 1025.41 1025.45 1025.49 1025.49 1025.49 1025.57 1025.65 1025.69 1025.77 1025.81 1025.81 1025.85 1025.89 1025.89 1025.93 1025.93 1025.93 1025.97 1025.93 1025.81 1025.69 1025.57 1025.45 1025.41 1025.37 1025.33 1025.29 1025.21 1025.17 1025.05 1024.93 1024.85 1024.65 1024.41 1024.21 1023.93 1023.61 1023.45 1023.25 1022.93 1022.73 1022.45 1022.33 1022.09 1021.89 1021.77 1021.57
1025.29 1025.29 1025.29 1025.33 1025.33 1025.33 1025.33 1025.33 1025.37 1025.37 1025.45 1025.57 1025.57 1025.65 1025.73 1025.73 1025.69 1025.65 1025.65 1025.57 1025.61 1025.69 1025.69 1025.73 1025.69 1025.65 1025.49 1025.41 1025.33 1025.29 1025.25 1025.21 1025.21 1025.13 1025.01 1024.85 1024.65 1024.45 1024.29 1024.09 1023.89 1023.65 1023.33 1023.05 1022.77 1022.57 1022.37 1022.17 1021.89 1021.69 1021.49 1021.33
1025.13 1025.13 1025.13 1025.13 1025.13 1025.13 1025.17 1025.21 1025.25 1025.21 1025.33 1025.41 1025.45 1025.53 1025.57 1025.61 1025.53 1025.45 1025.33 1025.25 1025.25 1025.33 1025.45 1025.49 1025.49 1025.49 1025.37 1025.33 1025.25 1025.17 1025.17 1025.17 1025.13 1025.05 1024.89 1024.73 1024.45 1024.21 1024.09 1023.97 1023.77 1023.69 1023.49 1023.17 1022.73 1022.41 1022.17 1021.93 1021.65 1021.41 1021.21 1021.01
1024.97 1024.89 1024.89 1024.93 1024.89 1024.93 1025.05 1025.01 1025.05 1025.01 1025.09 1025.17 1025.25 1025.33 1025.37 1025.45 1025.37 1025.25 1025.13 1025.05 1025.01 1025.01 1025.17 1025.25 1025.25 1025.21 1025.21 1025.17 1025.13 1025.09 1025.05 1025.09 1025.01 1024.93 1024.77 1024.61 1024.49 1024.21 1023.89 1023.81 1023.57 1023.45 1023.29 1023.01 1022.65 1022.29 1022.01 1021.73 1021.53 1021.29 1020.97 1020.73
1024.77 1024.77 1024.73 1024.73 1024.73 1024.73 1024.81 1024.77 1024.73 1024.81 1024.89 1024.97 1025.05 1025.09 1025.13 1025.17 1025.13 1025.05 1024.97 1024.89 1024.85 1024.81 1024.85 1024.93 1024.97 1024.97 1025.01 1025.05 1025.01 1024.97 1024.93 1025.01 1024.97 1024.85 1024.57 1024.37 1024.29 1024.21 1024.01 1023.85 1023.61 1023.25 1023.01 1022.77 1022.49 1022.17 1021.85 1021.53 1021.33 1021.13 1020.77 1020.45
1024.53 1024.53 1024.53 1024.53 1024.49 1024.49 1024.53 1024.53 1024.57 1024.61 1024.73 1024.73 1024.81 1024.89 1024.85 1024.85 1024.85 1024.77 1024.77 1024.69 1024.69 1024.65 1024.65 1024.73 1024.77 1024.81 1024.89 1024.93 1024.93 1024.85 1024.85 1024.81 1024.81 1024.69 1024.53 1024.13 1023.93 1023.89 1023.85 1023.65 1023.53 1023.25 1022.97 1022.73 1022.37 1021.97 1021.61 1021.21 1021.09 1020.77 1020.45 1020.21
1024.33 1024.37 1024.37 1024.41 1024.41 1024.41 1024.41 1024.45 1024.49 1024.49 1024.53 1024.53 1024.61 1024.61 1024.53 1024.57 1024.57 1024.49 1024.53 1024.53 1024.57 1024.57 1024.57 1024.61 1024.65 1024.69 1024.73 1024.77 1024.77 1024.73 1024.57 1024.49 1024.37 1024.25 1024.21 1024.05 1023.73 1023.61 1023.53 1023.41 1023.33 1023.13 1022.97 1022.65 1022.37 1021.93 1021.37 1021.09 1020.77 1020.41 1020.17 1020.01
1024.05 1024.17 1024.13 1024.13 1024.29 1024.41 1024.29 1024.29 1024.29 1024.33 1024.33 1024.29 1024.37 1024.33 1024.33 1024.29 1024.29 1024.29 1024.33 1024.41 1024.45 1024.45 1024.45 1024.49 1024.49 1024.49 1024.53 1024.53 1024.45 1024.29 1024.09 1023.97 1023.93 1023.81 1023.73 1023.69 1023.69 1023.41 1023.13 1023.05 1023.01 1022.89 1022.81 1022.61 1022.25 1021.61 1021.21 1020.89 1020.45 1020.21 1019.89 1019.69
1023.85 1023.89 1024.09 1024.25 1024.25 1024.01 1023.85 1023.89 1023.97 1024.05 1024.05 1024.13 1024.05 1024.01 1024.05 1024.05 1024.09 1024.17 1024.21 1024.25 1024.29 1024.29 1024.25 1024.21 1024.25 1024.21 1024.17 1024.09 1023.97 1023.85 1023.69 1023.69 1023.69 1023.69 1023.73 1023.61 1023.53 1023.33 1023.25 1022.81 1022.65 1022.61 1022.69 1022.37 1021.49 1021.17 1020.97 1020.61 1020.25 1019.89 1019.57 1019.57
1023.53 1023.49 1023.37 1023.33 1023.33 1023.53 1023.57 1023.77 1023.85 1023.69 1023.81 1023.77 1023.69 1023.77 1023.81 1023.81 1023.89 1023.93 1023.97 1023.97 1024.01 1023.97 1023.93 1023.89 1023.85 1023.77 1023.65 1023.61 1023.57 1023.53 1023.57 1023.57 1023.53 1023.53 1023.53 1023.57 1023.37 1023.37 1023.37 1023.13 1022.61 1022.57 1022.33 1021.69 1022.09 1021.73 1020.61 1020.45 1019.93 1019.09 1019.41 1019.33
1023.17 1023.13 1023.25 1023.21 1023.09 1023.25 1023.21 1023.41 1023.37 1023.29 1023.21 1023.37 1023.41 1023.45 1023.49 1023.53 1023.61 1023.65 1023.69 1023.69 1023.69 1023.65 1023.61 1023.53 1023.49 1023.37 1023.37 1023.37 1023.37 1023.41 1023.41 1023.41 1023.41 1023.49 1023.49 1023.53 1023.49 1023.37 1023.37 1023.17 1022.73 1022.57 1022.37 1022.13 1022.37 1022.25 1021.85 1019.49 1019.57 1018.97 1019.01 1019.33
1022.73 1022.73 1022.81 1022.97 1022.97 1023.05 1023.05 1022.81 1023.13 1023.29 1023.29 1023.29 1023.37 1023.21 1023.25 1023.33 1023.33 1023.37 1023.37 1023.41 1023.45 1023.41 1023.33 1023.25 1023.17 1023.17 1023.25 1023.21 1023.33 1023.33 1023.33 1023.41 1023.49 1023.57 1023.53 1023.53 1023.49 1023.53 1023.25 1023.13 1022.77 1022.61 1022.53 1022.49 1022.41 1021.05 1021.13 1021.01 1021.29 1019.49 1018.73 1019.85
1022.61 1022.85 1022.93 1023.01 1023.13 1023.21 1023.17 1023.21 1023.21 1023.17 1022.97 1022.97 1022.97 1023.05 1023.09 1022.81 1023.05 1023.13 1023.13 1023.17 1023.13 1023.09 1023.01 1022.97 1022.97 1023.05 1023.09 1023.21 1023.33 1023.45 1023.45 1023.45 1023.41 1023.45 1023.41 1023.41 1023.41 1023.41 1023.33 1023.33 1023.17 1023.01 1022.81 1022.65 1022.57 1022.41 1021.93 1020.73 1020.17 1019.09 1019.93 1020.61
1022.53 1022.57 1022.49 1022.73 1022.89 1022.85 1022.93 1022.85 1022.81 1022.61 1022.21 1022.21 1022.53 1022.37 1022.21 1022.61 1022.73 1022.77 1022.81 1022.81 1022.81 1022.77 1022.77 1022.77 1022.81 1022.93 1023.05 1023.21 1023.37 1023.45 1023.41 1023.41 1023.41 1023.29 1023.25 1023.25 1023.29 1023.29 1023.33 1023.33 1023.49 1023.21 1022.97 1022.85 1022.89 1022.69 1022.17 1021.69 1020.81 1020.65 1021.09 1021.37
1022.33 1022.33 1022.37 1022.29 1022.25 1022.25 1022.29 1022.25 1022.05 1022.01 1022.01 1022.01 1022.01 1022.13 1022.13 1022.05 1022.33 1022.45 1022.49 1022.49 1022.57 1022.57 1022.57 1022.61 1022.73 1022.85 1022.97 1023.09 1023.21 1023.29 1023.37 1023.37 1023.29 1023.21 1023.21 1023.21 1023.21 1023.17 1023.29 1023.41 1023.41 1023.21 1023.13 1023.17 1022.65 1022.65 1022.45 1022.29 1022.05 1022.13 1022.21 1021.25
Thickness
5608 5606 5605 5604 5602 5601 5600 5599 5598 5597 5597 5596 5595 5594 5593 5592 5591 5589 5588 5586 5585 5583 5582 5582 5581 5581 5581 5580 5580 5579 5579 5578 5577 5577 5576 5574 5573 5572 5570 5569 5568 5567 5566 5566 5565 5563 5562 5561 5560 5559 5558 5556
5604 5603 5601 5600 5599 5598 5596 5596 5594 5594 5593 5592 5591 5590 5589 5588 5586 5585 5583 5582 5580 5579 5578 5578 5577 5577 5577 5577 5576 5575 5574 5573 5572 5571 5569 5568 5567 5565 5564 5563 5562 5561 5560 5560 5559 5558 5556 5555 5554 5553 5552 5551
5601 5600 5598 5597 5596 5595 5593 5592 5591 5590 5590 5589 5588 5587 5586 5584 5582 5581 5579 5578 5576 5575 5574 5573 5573 5573 5573 5572 5571 5570 5569 5567 5566 5565 5563 5562 5561 5559 5558 5557 5556 5555 5554 5554 5553 5552 5551 5550 5548 5547 5546 5545
5598 5597 5595 5594 5592 5591 5590 5589 5588 5587 5587 5585 5584 5583 5582 5581 5579 5577 5575 5574 5572 5571 5570 5570 5569 5569 5568 5567 5566 5564 5563 5562 5560 5559 5557 5556 5555 5553 5553 5551 5550 5549 5548 5548 5548 5547 5545 5544 5543 5542 5541 5540
5595 5594 5592 5591 5590 5588 5587 5586 5585 5584 5584 5582 5581 5580 5578 5577 5575 5573 5572 5570 5568 5567 5566 5565 5565 5564 5563 5562 5560 5559 5558 5556 5555 5553 5552 5550 5549 5548 5547 5545 5545 5544 5543 5542 5542 5541 5540 5539 5537 5536 5535 5534
5592 5591 5589 5588 5586 5585 5583 5582 5582 5581 5580 5579 5577 5576 5575 5573 5571 5569 5568 5566 5564 5563 5562 5561 5561 5559 5558 5557 5555 5554 5552 5551 5549 5548 5546 5545 5544 5542 5541 5540 5539 5538 5537 5536 5536 5535 5534 5533 5532 5531 5530 5528
5589 5587 5586 5585 5583 5581 5580 5579 5579 5578 5577 5575 5574 5572 5571 5569 5567 5565 5563 5562 5560 5559 5558 5557 5556 5555 5553 5552 5550 5549 5547 5545 5544 5542 5541 5539 5538 5536 5535 5534 5533 5533 5532 5531 5530 5529 5529 5528 5527 5526 5525 5523
5586 5584 5582 5581 5580 5579 5577 5577 5576 5575 5574 5572 5570 5568 5567 5565 5563 5561 5559 5558 5556 5555 5554 5553 5552 5550 5549 5547 5546 5544 5542 5540 5539 5537 5536 5534 5533 5532 5531 5529 5529 5528 5527 5526 5526 5525 5524 5523 5522 5521 5519 5518
5583 5581 5580 5578 5577 5576 5575 5574 5573 5572 5570 5569 5566 5564 5563 5561 5559 5557 5555 5553 5552 5551 5550 5549 5548 5546 5545 5543 5541 5539 5537 5536 5534 5533 5532 5530 5529 5527 5526 5525 5524 5523 5522 5522 5521 5520 5519 5518 5517 5516 5514 5513
5581 5579 5578 5576 5575 5573 5572 5571 5570 5569 5567 5565 5563 5561 5559 5557 5555 5553 5551 5549 5548 5547 5545 5544 5543 5541 5540 5538 5536 5535 5533 5531 5530 5528 5527 5525 5524 5523 5522 5521 5520 5519 5518 5517 5517 5516 5515 5514 5512 5511 5509 5508
5580 5578 5576 5575 5573 5571 5570 5569 5567 5565 5564 5562 5559 5557 5555 5554 5552 5549 5547 5545 5544 5542 5541 5540 5538 5537 5535 5533 5531 5529 5528 5526 5525 5524 5522 5521 5520 5519 5518 5517 5517 5516 5515 5513 5512 5511 5511 5509 5508 5506 5505 5503
5579 5577 5576 5573 5572 5570 5568 5566 5564 5563 5561 5559 5557 5555 5553 5551 5548 5546 5544 5541 5540 5539 5537 5536 5534 5532 5530 5528 5527 5525 5524 5522 5521 5520 5519 5518 5516 5515 5514 5513 5513 5512 5511 5509 5508 5506 5506 5505 5504 5502 5501 5499
5578 5576 5574 5573 5571 5568 5566 5565 5563 5561 5559 5557 5555 5552 5550 5548 5545 5542 5540 5538 5536 5535 5533 5532 5530 5528 5526 5524 5523 5521 5520 5519 5518 5517 5516 5514 5513 5511 5510 5509 5508 5507 5506 5504 5503 5501 5500 5500 5499 5498 5496 5494
5577 5575 5573 5571 5570 5567 5565 5563 5561 5559 5557 5555 5552 5550 5548 5545 5542 5539 5537 5534 5533 5531 5529 5527 5526 5524 5522 5520 5519 5518 5517 5516 5514 5513 5511 5510 5508 5506 5504 5503 5502 5500 5500 5499 5498 5496 5495 5494 5493 5493 5492 5490
5576 5574 5572 5570 5568 5566 5563 5561 5559 5557 5555 5552 5550 5547 5545 5542 5539 5536 5533 5531 5529 5527 5525 5523 5522 5520 5519 5517 5516 5515 5513 5512 5510 5508 5506 5504 5502 5500 5499 5498 5496 5495 5494 5494 5493 5492 5490 5489 5488 5487 5486 5485
5574 5572 5570 5568 5566 5564 5562 5559 5557 5555 5552 5549 5547 5545 5542 5539 5536 5533 5531 5529 5526 5524 5522 5520 5519 5517 5516 5514 5513 5511 5509 5507 5505 5503 5501 5499 5497 5496 5494 5493 5492 5491 5490 5489 5488 5487 5486 5484 5483 5482 5481 5480
5573 5571 5568 5566 5564 5562 5560 5557 5555 5552 5550 5547 5544 5541 5539 5536 5533 5531 5529 5527 5525 5522 5520 5518 5516 5514 5512 5511 5509 5507 5505 5503 5500 5498 5497 5495 5492 5491 5491 5490 5489 5488 5486 5485 5484 5482 5481 5480 5478 5477 5476 5474
5571 5568 5567 5565 5562 5560 5558 5555 5553 5550 5547 5544 5541 5538 5535 5533 5531 5529 5527 5525 5523 5520 5517 5515 5512 5510 5508 5507 5505 5502 5500 5498 5496 5494 5492 5490 5489 5487 5486 5485 5484 5483 5481 5480 5479 5478 5476 5475 5474 5472 5471 5470
5569 5567 5565 5563 5561 5559 5556 5553 5550 5547 5544 5541 5538 5535 5532 5530 5528 5527 5525 5523 5521 5518 5515 5512 5509 5507 5505 5503 5500 5498 5496 5493 5491 5488 5487 5486 5485 5483 5482 5480 5479 5477 5476 5474 5473 5473 5472 5471 5470 5468 5467 5466
5568 5566 5564 5562 5559 5556 5553 5551 5548 5545 5542 5539 5536 5533 5530 5528 5525 5524 5522 5520 5518 5515 5512 5509 5506 5503 5501 5498 5496 5493 5491 5488 5486 5483 5481 5481 5480 5479 5477 5475 5474 5472 5470 5469 5469 5468 5467 5466 5465 5464 5463 5462
5566 5564 5562 5560 5557 5554 5551 5549 5546 5543 5540 5537 5534 5531 5528 5525 5523 5520 5519 5517 5514 5512 5509 5505 5502 5500 5497 5494 5491 5488 5486 5483 5481 5478 5477 5475 5474 5473 5472 5470 5469 5468 5466 5465 5464 5463 5462 5461 5460 5460 5459 5458
5564 5562 5560 5557 5555 5552 5550 5547 5544 5541 5537 5534 5531 5528 5526 5523 5520 5517 5515 5513 5511 5508 5505 5502 5498 5495 5492 5489 5486 5483 5481 5478 5476 5474 5472 5470 5469 5467 5466 5465 5463 5463 5462 5460 5459 5458 5457 5456 5456 5456 5455 5454
5563 5560 5557 5555 5552 5549 5547 5544 5541 5538 5535 5532 5529 5526 5523 5521 5518 5515 5512 5509 5506 5504 5500 5497 5494 5491 5488 5485 5482 5479 5477 5475 5473 5471 5468 5466 5464 5461 5460 5459 5458 5458 5457 5455 5454 5454 5453 5452 5451 5451 5451 5450
5560 5557 5554 5551 5549 5546 5544 5541 5538 5535 5532 5529 5527 5524 5521 5519 5516 5512 5509 5506 5502 5499 5496 5493 5490 5487 5484 5481 5478 5476 5474 5472 5470 5467 5464 5461 5459 5457 5455 5453 5452 5452 5451 5450 5451 5450 5449 5447 5446 5446 5446 5444
5559 5555 5552 5549 5546 5544 5541 5538 5535 5532 5529 5526 5524 5521 5518 5515 5512 5509 5505 5502 5498 5495 5492 5489 5487 5484 5481 5479 5476 5473 5471 5468 5465 5462 5459 5456 5454 5452 5449 5447 5447 5445 5445 5445 5447 5448 5447 5443 5440 5440 5439 5437
5557 5554 5551 5548 5545 5542 5539 5535 5532 5529 5526 5524 5521 5518 5515 5512 5508 5505 5501 5498 5495 5492 5489 5487 5484 5481 5479 5476 5473 5469 5467 5463 5460 5457 5454 5450 5448 5445 5442 5440 5439 5438 5438 5438 5436 5436 5440 5442 5441 5437 5433 5430
5556 5553 5550 5547 5544 5540 5537 5533 5530 5527 5524 5521 5518 5515 5511 5508 5505 5501 5498 5495 5492 5489 5486 5483 5480 5478 5475 5471 5468 5464 5461 5457 5454 5450 5446 5443 5440 5438 5434 5432 5431 5429 5428 5428 5424 5423 5429 5435 5434 5434 5431 5425
5554 5551 5547 5544 5541 5537 5533 5530 5527 5523 5520 5517 5514 5511 5507 5505 5502 5498 5495 5492 5488 5485 5482 5479 5476 5473 5469 5465 5461 5457 5453 5450 5446 5442 5439 5435 5433 5430 5427 5425 5422 5419 5416 5415 5415 5414 5417 5417 5418 5427 5425 5417
5551 5547 5543 5539 5536 5532 5529 5526 5523 5519 5518 5515 5510 5507 5505 5502 5498 5494 5491 5488 5484 5481 5478 5475 5471 5467 5463 5458 5454 5450 5446 5442 5439 5435 5433 5429 5426 5422 5420 5418 5413 5410 5407 5404 5402 5401 5403 5404 5409 5416 5408 5403
5547 5544 5540 5536 5532 5529 5526 5523 5521 5519 5517 5514 5509 5506 5503 5499 5495 5491 5487 5484 5480 5477 5473 5469 5465 5461 5456 5452 5447 5443 5439 5435 5432 5429 5426 5422 5419 5415 5412 5409 5405 5401 5398 5394 5391 5389 5389 5391 5393 5394 5388 5387
5544 5541 5538 5534 5531 5528 5525 5522 5520 5518 5515 5512 5507 5503 5500 5495 5492 5488 5484 5480 5475 5472 5468 5464 5460 5455 5451 5446 5441 5437 5433 5429 5426 5422 5419 5415 5412 5408 5404 5401 5397 5394 5389 5385 5383 5381 5378 5377 5374 5372 5372 5371